FW9582 Weather Reports


Display with metric or nautical units.
time (UTC)temp
F
wind
direction
speed
MPH
gust
MPH
rain 1hr
in
rain 24hr
in
rain mn
in
humidity
%
barometer
mb
20221006143908 66 241 2.0 2.0 0.00 0.00 0.00 58 1017.2
20221006143408 65 283 2.0 3.0 0.00 0.00 0.00 60 1017.2
20221006142907 63 135 0.0 0.0 0.00 0.00 0.00 64 1017.2
20221006142406 61 251 0.0 2.0 0.00 0.00 0.00 69 1017.3
20221006141906 59 259 1.0 2.0 0.00 0.00 0.00 71 1017.1
20221006141406 58 259 0.0 1.0 0.00 0.00 0.00 75 1017.5
20221006140905 57 259 1.0 1.0 0.00 0.00 0.00 78 1017.2
20221006140405 56 259 0.0 2.0 0.00 0.00 0.00 80 1017.2
20221006135905 55 259 0.0 1.0 0.00 0.00 0.00 81 1017.3
20221006135404 53 259 1.0 1.0 0.00 0.00 0.00 86 1017.5
20221006134904 52 259 0.0 1.0 0.00 0.00 0.00 95 1017.5
20221006134404 50 259 0.0 1.0 0.00 0.00 0.00 99 1017.1
20221006133903 50 259 0.0 1.0 0.00 0.00 0.00 99 1017.5
20221006133403 49 259 0.0 0.0 0.00 0.00 0.00 99 1017.1
20221006132903 48 259 0.0 1.0 0.00 0.00 0.00 99 1017.1
20221006132401 48 259 0.0 1.0 0.00 0.00 0.00 99 1017.0
20221006131901 47 259 0.0 0.0 0.00 0.00 0.00 99 1017.2
20221006131401 46 259 0.0 0.0 0.00 0.00 0.00 99 1017.1
20221006130900 46 259 0.0 0.0 0.00 0.00 0.00 99 1017.2
20221006130359 45 259 0.0 0.0 0.00 0.00 0.00 99 1017.2
20221006125859 45 259 0.0 0.0 0.00 0.00 0.00 99 1017.2
20221006125357 45 259 0.0 0.0 0.00 0.00 0.00 99 1017.2
20221006124856 44 259 0.0 0.0 0.00 0.00 0.00 99 1017.2
20221006124355 44 259 0.0 0.0 0.00 0.00 0.00 99 1017.1
20221006123855 44 259 0.0 0.0 0.00 0.00 0.00 99 1017.1
20221006123355 44 259 0.0 0.0 0.00 0.00 0.00 99 1017.0
20221006122853 44 259 0.0 0.0 0.00 0.00 0.00 99 1017.0
20221006122351 44 259 0.0 0.0 0.00 0.00 0.00 99 1017.0
20221006121852 43 259 0.0 0.0 0.00 0.00 0.00 99 1016.8
20221006121350 43 259 0.0 0.0 0.00 0.00 0.00 99 1016.8
20221006120848 43 259 0.0 0.0 0.00 0.00 0.00 99 1016.9
20221006120347 43 259 0.0 0.0 0.00 0.00 0.00 99 1017.0
20221006115846 43 259 0.0 0.0 0.00 0.00 0.00 99 1016.7
20221006115344 43 259 0.0 0.0 0.00 0.00 0.00 99 1016.9
20221006114845 43 259 0.0 0.0 0.00 0.00 0.00 99 1016.4
20221006114345 43 259 0.0 0.0 0.00 0.00 0.00 99 1016.5
20221006113844 43 259 0.0 0.0 0.00 0.00 0.00 99 1016.4
20221006113343 43 259 0.0 0.0 0.00 0.00 0.00 99 1016.4
20221006112843 43 259 0.0 0.0 0.00 0.00 0.00 99 1016.3
20221006112342 43 259 0.0 0.0 0.00 0.00 0.00 99 1016.1
20221006111842 43 259 0.0 0.0 0.00 0.00 0.00 99 1016.4
20221006111341 44 259 0.0 0.0 0.00 0.00 0.00 99 1016.2
20221006110840 44 259 0.0 0.0 0.00 0.00 0.00 99 1016.4
20221006110340 44 259 0.0 0.0 0.00 0.00 0.00 99 1016.3
20221006105840 44 259 0.0 0.0 0.00 0.00 0.00 99 1016.2
20221006105339 44 259 0.0 0.0 0.00 0.00 0.00 99 1016.2
20221006104839 44 259 0.0 0.0 0.00 0.00 0.00 99 1016.1
20221006104337 44 259 0.0 0.0 0.00 0.00 0.00 99 1016.3
20221006103837 44 259 0.0 0.0 0.00 0.00 0.00 99 1016.2
20221006103336 44 259 0.0 0.0 0.00 0.00 0.00 99 1016.1
20221006102836 43 259 0.0 0.0 0.00 0.00 0.00 99 1016.2
20221006102336 43 259 0.0 0.0 0.00 0.00 0.00 99 1016.0
20221006101834 43 259 0.0 0.0 0.00 0.00 0.00 99 1016.2
20221006101333 43 259 0.0 0.0 0.00 0.00 0.00 99 1016.4
20221006100833 43 259 0.0 0.0 0.00 0.00 0.00 99 1016.1
20221006100332 43 259 0.0 0.0 0.00 0.00 0.00 99 1016.4
20221006095830 43 259 0.0 0.0 0.00 0.00 0.00 99 1016.3
20221006095330 44 259 0.0 0.0 0.00 0.00 0.00 99 1016.1
20221006094829 43 259 0.0 0.0 0.00 0.00 0.00 99 1016.1
20221006094328 43 258 0.0 0.0 0.00 0.00 0.00 99 1016.1
20221006093827 43 258 0.0 0.0 0.00 0.00 0.00 99 1016.2
20221006093327 43 259 0.0 0.0 0.00 0.00 0.00 99 1016.4
20221006092825 42 259 0.0 0.0 0.00 0.00 0.00 99 1016.2
20221006092324 42 258 0.0 0.0 0.00 0.00 0.00 99 1016.2
20221006091824 42 259 0.0 0.0 0.00 0.00 0.00 99 1016.3
20221006091324 42 259 0.0 0.0 0.00 0.00 0.00 99 1016.2
20221006090822 42 259 0.0 0.0 0.00 0.00 0.00 99 1016.2
20221006090322 41 259 0.0 0.0 0.00 0.00 0.00 99 1016.1
20221006085823 41 258 0.0 0.0 0.00 0.00 0.00 99 1016.3
20221006085322 41 259 0.0 0.0 0.00 0.00 0.00 99 1016.1
20221006084822 41 259 0.0 0.0 0.00 0.00 0.00 99 1016.3
20221006084321 40 259 0.0 0.0 0.00 0.00 0.00 99 1016.3
20221006083821 40 259 0.0 0.0 0.00 0.00 0.00 99 1016.1
20221006083320 40 259 0.0 0.0 0.00 0.00 0.00 99 1016.2
20221006082819 40 259 0.0 0.0 0.00 0.00 0.00 99 1016.3
20221006082318 39 259 0.0 0.0 0.00 0.00 0.00 99 1016.4
20221006081819 40 259 0.0 0.0 0.00 0.00 0.00 99 1016.3
20221006081318 40 259 0.0 0.0 0.00 0.00 0.00 99 1016.4
20221006080817 40 259 0.0 0.0 0.00 0.00 0.00 99 1016.3
20221006080317 40 259 0.0 0.0 0.00 0.00 0.00 99 1016.5
20221006075815 40 258 0.0 0.0 0.00 0.00 0.00 99 1016.3
20221006075313 40 259 0.0 0.0 0.00 0.00 0.00 99 1016.4
20221006074812 40 259 0.0 0.0 0.00 0.00 0.00 99 1016.3
20221006074311 40 259 0.0 0.0 0.00 0.00 0.00 99 1016.5
20221006073811 40 259 0.0 0.0 0.00 0.00 0.00 99 1016.3
20221006073309 40 259 0.0 0.0 0.00 0.00 0.00 99 1016.7
20221006072808 40 258 0.0 0.0 0.00 0.00 0.00 99 1016.6
20221006072307 40 258 0.0 0.0 0.00 0.00 0.00 99 1016.6
20221006071806 41 259 0.0 0.0 0.00 0.00 0.00 99 1016.7
20221006071306 41 259 0.0 0.0 0.00 0.00 0.00 99 1016.4
20221006070805 41 259 0.0 0.0 0.00 0.00 0.00 99 1016.5
20221006070304 41 258 0.0 0.0 0.00 0.00 0.00 99 1016.6
20221006065803 41 259 0.0 0.0 0.00 0.00 0.00 99 1016.8
20221006065305 41 259 0.0 0.0 0.00 0.00 0.00 99 1016.6
20221006064802 41 259 0.0 0.0 0.00 0.00 0.00 99 1016.5
20221006064301 41 259 0.0 0.0 0.00 0.00 0.00 99 1016.5
20221006063800 41 258 0.0 0.0 0.00 0.00 0.00 99 1016.5
20221006063258 42 258 0.0 0.0 0.00 0.00 0.00 99 1016.5
20221006062758 41 258 0.0 0.0 0.00 0.00 0.00 99 1016.6
20221006062257 41 259 0.0 0.0 0.00 0.00 0.00 99 1016.5
20221006061757 41 259 0.0 0.0 0.00 0.00 0.00 99 1016.4
20221006061257 41 258 0.0 0.0 0.00 0.00 0.00 99 1016.7
20221006060757 41 258 0.0 0.0 0.00 0.00 0.00 99 1016.6
20221006060255 41 258 0.0 0.0 0.00 0.00 0.00 99 1016.6
20221006055755 41 259 0.0 0.0 0.00 0.00 0.00 99 1016.3
20221006055254 41 258 0.0 0.0 0.00 0.00 0.00 99 1016.4
20221006054754 41 258 0.0 0.0 0.00 0.00 0.00 99 1016.6
20221006054253 41 258 0.0 0.0 0.00 0.00 0.00 99 1016.6
20221006053753 42 259 0.0 0.0 0.00 0.00 0.00 99 1016.7
20221006053252 41 258 0.0 0.0 0.00 0.00 0.00 99 1016.6
20221006052750 41 259 0.0 0.0 0.00 0.00 0.00 99 1016.4
20221006052248 42 258 0.0 0.0 0.00 0.00 0.00 99 1016.6
20221006051748 42 258 0.0 0.0 0.00 0.00 0.00 99 1016.6
20221006051247 42 258 0.0 0.0 0.00 0.00 0.00 99 1016.6
20221006050746 42 258 0.0 0.0 0.00 0.00 0.00 99 1016.7
20221006050245 42 258 0.0 0.0 0.00 0.00 0.00 99 1016.5
20221006045745 42 258 0.0 0.0 0.00 0.00 0.00 99 1016.8
20221006045244 42 258 0.0 0.0 0.00 0.00 0.00 99 1016.7
20221006044744 42 258 0.0 0.0 0.00 0.00 0.00 98 1016.8
20221006044243 43 258 0.0 0.0 0.00 0.00 0.00 99 1016.6
20221006043743 42 258 0.0 0.0 0.00 0.00 0.00 98 1016.6
20221006043243 42 258 0.0 0.0 0.00 0.00 0.00 98 1016.8
20221006042743 42 258 0.0 0.0 0.00 0.00 0.00 98 1016.5
20221006042242 42 258 0.0 0.0 0.00 0.00 0.00 98 1016.7
20221006041742 42 258 0.0 0.0 0.00 0.00 0.00 98 1016.9
20221006041240 42 258 0.0 0.0 0.00 0.00 0.00 97 1016.8
20221006040740 42 258 0.0 0.0 0.00 0.00 0.00 97 1016.8
20221006040239 43 258 0.0 0.0 0.00 0.00 0.00 97 1017.0
20221006035739 43 258 0.0 0.0 0.00 0.00 0.00 97 1016.9
20221006035239 43 258 0.0 0.0 0.00 0.00 0.00 97 1016.8
20221006034738 43 258 0.0 0.0 0.00 0.00 0.00 97 1016.9
20221006034237 43 258 0.0 0.0 0.00 0.00 0.00 96 1016.9
20221006033736 44 258 0.0 0.0 0.00 0.00 0.00 96 1017.2
20221006033236 44 258 0.0 0.0 0.00 0.00 0.00 96 1016.9
20221006032734 44 258 0.0 0.0 0.00 0.00 0.00 96 1017.0
20221006032234 44 258 0.0 0.0 0.00 0.00 0.00 95 1016.9
20221006031734 44 258 0.0 0.0 0.00 0.00 0.00 95 1016.9
20221006031233 44 258 0.0 0.0 0.00 0.00 0.00 95 1016.9
20221006030732 44 258 0.0 0.0 0.00 0.00 0.00 94 1017.1
20221006030231 44 258 0.0 0.0 0.00 0.00 0.00 94 1016.9
20221006025731 45 258 0.0 0.0 0.00 0.00 0.00 94 1016.8
20221006025230 45 258 0.0 0.0 0.00 0.00 0.00 93 1016.9
20221006024730 45 258 0.0 0.0 0.00 0.00 0.00 93 1017.0
20221006024230 45 258 0.0 0.0 0.00 0.00 0.00 93 1016.8
20221006023730 45 258 0.0 0.0 0.00 0.00 0.00 92 1016.6
20221006023229 46 258 0.0 0.0 0.00 0.00 0.00 92 1016.9
20221006022727 46 258 0.0 0.0 0.00 0.00 0.00 91 1016.9
20221006022226 46 258 0.0 0.0 0.00 0.00 0.00 91 1016.7
20221006021725 46 258 0.0 0.0 0.00 0.00 0.00 90 1016.9
20221006021224 46 258 0.0 0.0 0.00 0.00 0.00 90 1016.8
20221006020724 47 258 0.0 0.0 0.00 0.00 0.00 90 1016.9
20221006020223 47 258 0.0 0.0 0.00 0.00 0.00 89 1016.5
20221006015722 47 258 0.0 0.0 0.00 0.00 0.00 89 1016.9
20221006015222 47 258 0.0 0.0 0.00 0.00 0.00 89 1016.8
20221006014721 48 258 0.0 0.0 0.00 0.00 0.00 88 1016.8
20221006014221 48 258 0.0 0.0 0.00 0.00 0.00 88 1016.6
20221006013720 48 258 0.0 0.0 0.00 0.00 0.00 86 1017.0
20221006013219 48 258 0.0 0.0 0.00 0.00 0.00 87 1016.8
20221006012719 48 258 0.0 0.0 0.00 0.00 0.00 88 1016.9
20221006012219 48 258 0.0 0.0 0.00 0.00 0.00 87 1016.7
20221006011718 48 258 0.0 0.0 0.00 0.00 0.00 86 1016.6
20221006011217 49 258 0.0 0.0 0.00 0.00 0.00 85 1016.4
20221006010713 49 258 0.0 0.0 0.00 0.00 0.00 85 1016.5
20221006010211 50 258 0.0 0.0 0.00 0.00 0.00 84 1016.5
20221006005711 50 258 0.0 0.0 0.00 0.00 0.00 84 1016.6
20221006005210 51 258 0.0 0.0 0.00 0.00 0.00 83 1016.5
20221006004710 51 258 0.0 0.0 0.00 0.00 0.00 83 1016.3
20221006004208 51 258 0.0 0.0 0.00 0.00 0.00 81 1016.4
20221006003708 52 258 0.0 0.0 0.00 0.00 0.00 80 1016.5
20221006003208 52 254 0.0 0.0 0.00 0.00 0.00 80 1016.3
20221006002706 52 254 0.0 0.0 0.00 0.00 0.00 81 1016.3
20221006002206 53 254 0.0 0.0 0.00 0.00 0.00 79 1016.5
20221006001706 53 254 0.0 0.0 0.00 0.00 0.00 80 1016.5
20221006001204 53 254 0.0 0.0 0.00 0.00 0.00 79 1016.6
20221006000703 54 254 0.0 0.0 0.00 0.00 0.00 78 1016.5
20221006000202 55 254 0.0 0.0 0.00 0.00 0.00 76 1016.5
20221005235701 55 254 0.0 0.0 0.00 0.00 0.00 76 1016.3
20221005235201 56 254 0.0 0.0 0.00 0.00 0.00 75 1016.6
20221005234702 56 254 0.0 0.0 0.00 0.00 0.00 74 1016.1
20221005234201 57 254 0.0 0.0 0.00 0.00 0.00 73 1016.3
20221005233659 58 254 0.0 0.0 0.00 0.00 0.00 71 1016.2
20221005233158 59 254 0.0 0.0 0.00 0.00 0.00 69 1016.2
20221005232657 59 254 0.0 0.0 0.00 0.00 0.00 68 1016.5
20221005232154 60 253 0.0 0.0 0.00 0.00 0.00 66 1016.1
20221005231652 61 253 0.0 0.0 0.00 0.00 0.00 65 1016.3
20221005231152 62 253 0.0 0.0 0.00 0.00 0.00 62 1016.4
20221005230652 62 253 0.0 0.0 0.00 0.00 0.00 60 1016.2
20221005230152 63 253 0.0 0.0 0.00 0.00 0.00 58 1016.2
20221005225651 64 253 0.0 0.0 0.00 0.00 0.00 55 1016.1
20221005225151 64 253 0.0 0.0 0.00 0.00 0.00 52 1016.1
20221005224650 66 254 0.0 0.0 0.00 0.00 0.00 50 1016.0
20221005224150 67 254 0.0 0.0 0.00 0.00 0.00 46 1016.3
20221005223650 68 253 0.0 1.0 0.00 0.00 0.00 44 1016.0
20221005223149 70 254 0.0 0.0 0.00 0.00 0.00 39 1016.1
20221005222647 72 254 0.0 1.0 0.00 0.00 0.00 37 1015.9
20221005222146 76 254 0.0 0.0 0.00 0.00 0.00 33 1015.9
20221005221645 77 253 0.0 0.0 0.00 0.00 0.00 30 1016.0
20221005221144 77 253 0.0 0.0 0.00 0.00 0.00 29 1016.1
20221005220642 76 253 0.0 0.0 0.00 0.00 0.00 30 1016.1
20221005220141 76 253 0.0 1.0 0.00 0.00 0.00 29 1015.9
20221005215641 76 253 0.0 1.0 0.00 0.00 0.00 28 1016.0
20221005215140 77 273 0.0 1.0 0.00 0.00 0.00 30 1016.0
20221005214640 79 315 0.0 1.0 0.00 0.00 0.00 30 1015.9
20221005214139 79 315 1.0 1.0 0.00 0.00 0.00 29 1015.8
20221005213638 80 316 0.0 1.0 0.00 0.00 0.00 29 1016.0
20221005213136 81 262 0.0 1.0 0.00 0.00 0.00 26 1016.1
20221005212632 81 261 0.0 1.0 0.00 0.00 0.00 28 1015.9
20221005212132 81 284 1.0 1.0 0.00 0.00 0.00 26 1016.2
20221005211632 81 204 0.0 2.0 0.00 0.00 0.00 22 1016.0
20221005211130 81 301 0.0 1.0 0.00 0.00 0.00 25 1016.1
20221005210629 80 234 1.0 2.0 0.00 0.00 0.00 24 1016.0
20221005210129 81 279 0.0 1.0 0.00 0.00 0.00 23 1016.0
20221005205628 80 285 1.0 1.0 0.00 0.00 0.00 23 1016.1
20221005205126 80 315 1.0 1.0 0.00 0.00 0.00 26 1016.1
20221005204625 80 300 1.0 2.0 0.00 0.00 0.00 27 1016.2
20221005204125 80 346 1.0 2.0 0.00 0.00 0.00 29 1016.2
20221005203624 79 263 1.0 2.0 0.00 0.00 0.00 27 1016.2
20221005203123 80 237 0.0 2.0 0.00 0.00 0.00 23 1016.1
20221005202622 80 268 0.0 2.0 0.00 0.00 0.00 26 1016.2
20221005202122 79 358 1.0 1.0 0.00 0.00 0.00 26 1016.3
20221005201620 78 358 0.0 1.0 0.00 0.00 0.00 29 1016.2
20221005201119 79 204 0.0 2.0 0.00 0.00 0.00 24 1016.6
20221005200618 79 208 2.0 2.0 0.00 0.00 0.00 22 1016.6
20221005200118 80 237 2.0 2.0 0.00 0.00 0.00 23 1016.5
20221005195616 79 336 1.0 2.0 0.00 0.00 0.00 26 1016.7
20221005195115 79 335 1.0 2.0 0.00 0.00 0.00 26 1016.6
20221005194615 80 329 1.0 3.0 0.00 0.00 0.00 28 1016.6
20221005194114 80 265 1.0 3.0 0.00 0.00 0.00 26 1016.7
20221005193614 80 316 1.0 2.0 0.00 0.00 0.00 24 1016.7
20221005193113 79 333 1.0 2.0 0.00 0.00 0.00 24 1017.0
20221005192613 79 310 0.0 2.0 0.00 0.00 0.00 26 1017.0
20221005192112 80 250 3.0 3.0 0.00 0.00 0.00 29 1016.9
20221005191612 81 309 0.0 2.0 0.00 0.00 0.00 28 1017.0
20221005191110 80 31 1.0 3.0 0.00 0.00 0.00 27 1017.1
20221005190609 80 231 0.0 1.0 0.00 0.00 0.00 27 1017.2
20221005190108 79 220 1.0 2.0 0.00 0.00 0.00 26 1017.3
20221005185607 78 313 2.0 6.0 0.00 0.00 0.00 29 1017.1
20221005185107 77 244 1.0 2.0 0.00 0.00 0.00 32 1017.3
20221005184605 78 196 3.0 5.0 0.00 0.00 0.00 26 1017.3
20221005184103 77 195 0.0 2.0 0.00 0.00 0.00 27 1017.2
20221005183603 76 191 3.0 3.0 0.00 0.00 0.00 27 1017.8
20221005183102 77 284 1.0 3.0 0.00 0.00 0.00 26 1017.5
20221005182602 78 232 3.0 5.0 0.00 0.00 0.00 26 1017.5
20221005182101 78 274 0.0 5.0 0.00 0.00 0.00 27 1017.7
20221005181559 77 343 1.0 2.0 0.00 0.00 0.00 29 1017.8
20221005181058 76 346 1.0 2.0 0.00 0.00 0.00 25 1017.9
20221005180558 76 185 2.0 3.0 0.00 0.00 0.00 27 1018.0
20221005180058 77 9 2.0 2.0 0.00 0.00 0.00 27 1018.1
20221005175558 76 244 0.0 3.0 0.00 0.00 0.00 28 1018.1
20221005175057 77 281 2.0 2.0 0.00 0.00 0.00 28 1018.0
20221005174557 77 354 1.0 2.0 0.00 0.00 0.00 26 1018.1
20221005174056 77 276 1.0 2.0 0.00 0.00 0.00 30 1018.4
20221005173555 77 245 1.0 2.0 0.00 0.00 0.00 32 1018.5
20221005173054 76 344 1.0 2.0 0.00 0.00 0.00 29 1018.2
20221005172552 76 194 2.0 2.0 0.00 0.00 0.00 28 1018.6
20221005172051 76 6 1.0 3.0 0.00 0.00 0.00 27 1018.5
20221005171551 75 192 2.0 3.0 0.00 0.00 0.00 31 1018.6
20221005171049 76 272 1.0 1.0 0.00 0.00 0.00 32 1018.6
20221005170548 75 205 2.0 3.0 0.00 0.00 0.00 30 1018.9
20221005170047 75 4 1.0 2.0 0.00 0.00 0.00 35 1018.9
20221005165547 75 357 1.0 2.0 0.00 0.00 0.00 34 1018.8
20221005165046 75 36 3.0 3.0 0.00 0.00 0.00 32 1018.8
20221005164546 76 262 0.0 2.0 0.00 0.00 0.00 30 1018.6
20221005164045 74 29 1.0 2.0 0.00 0.00 0.00 31 1018.9
20221005163544 73 352 0.0 1.0 0.00 0.00 0.00 35 1018.9
20221005163043 73 203 2.0 5.0 0.00 0.00 0.00 30 1018.9
20221005162543 74 249 2.0 2.0 0.00 0.00 0.00 29 1018.9
20221005162042 74 24 0.0 2.0 0.00 0.00 0.00 38 1019.0
20221005161541 75 290 0.0 2.0 0.00 0.00 0.00 33 1018.9
20221005161040 72 274 2.0 2.0 0.00 0.00 0.00 38 1019.1
20221005160538 71 41 1.0 2.0 0.00 0.00 0.00 46 1019.1
20221005160037 72 68 1.0 3.0 0.00 0.00 0.00 38 1018.8
20221005155537 72 172 1.0 2.0 0.00 0.00 0.00 36 1019.0
20221005155036 72 313 1.0 2.0 0.00 0.00 0.00 33 1019.3
20221005154535 70 50 2.0 2.0 0.00 0.00 0.00 36 1019.1
20221005154034 70 343 1.0 2.0 0.00 0.00 0.00 49 1018.9
20221005153534 69 1 0.0 1.0 0.00 0.00 0.00 44 1019.2
20221005153033 70 0 0.0 1.0 0.00 0.00 0.00 49 1019.0
20221005152531 68 340 1.0 2.0 0.00 0.00 0.00 49 1019.2
20221005152031 66 21 1.0 1.0 0.00 0.00 0.00 47 1019.1
20221005151531 68 39 1.0 2.0 0.00 0.00 0.00 45 1019.1
20221005151030 67 236 1.0 2.0 0.00 0.00 0.00 40 1019.1
20221005150529 64 320 0.0 0.0 0.00 0.00 0.00 38 1019.1
20221005150028 63 321 1.0 2.0 0.00 0.00 0.00 58 1018.9
20221005145528 63 326 1.0 1.0 0.00 0.00 0.00 66 1019.1
20221005145028 61 274 1.0 1.0 0.00 0.00 0.00 68 1019.0
20221005144528 60 274 1.0 1.0 0.00 0.00 0.00 72 1019.1